Flag for U.S.A. Weather past 2 weeks in Corpus Christi, Texas, U.S.A.

Now
76 °F

Light rain. Broken clouds.


Feels Like: 75 °F
Forecast: 77 / 88 °F
Wind: 6 mph from Southeast

Location: Corpus Christi International Airport

Current Time: Aug 30, 2014 at 9:31:41 AM

Latest Report: Aug 30, 2014 at 8:51 AM


Visibility: 8 mi

Pressure: 29.93 "Hg

Humidity: 94%

Dew point: 74 °F

Location of Corpus ChristiLocation

Historic Weather in Corpus Christi — Graph

°F

Corpus Christi temperature yesterday

Maximum temperature yesterday: 88 °F (at 3:51 PM)
Minimum temperature yesterday: 77 °F (at 6:51 AM)
Average temperature yesterday: 81 °F

Past Weeks' High & Low Weather Summary

 TemperatureHumidityPressure
High99 °F (Aug 16, 12:51 PM)96% (Aug 30, 7:58 AM)30.04 "Hg (Aug 30, 7:58 AM)
Low74 °F (Aug 23, 5:51 AM)35% (Aug 22, 1:51 PM)29.78 "Hg (Aug 29, 5:51 PM)
Average86 °F71%29.92 "Hg
* Reported Aug 15 7:51 AM — Aug 30 7:58 AM, Corpus Christi, Weather by CustomWeather, © 2014

Note: Actual official high and low records may vary slightly from our data, if they occured in-between our weather recording intervals... More about our weather records

Advertising

Corpus Christi weather history for previous 24 hours

 ConditionsComfort  
Time TempWeatherWind HumidityBarometerVisibility
7:58 AM
Aug 30
75 °FHeavy rain. Fog.5 mph96%29.92 "Hg2 mi
6:51 AM79 °FThunderstorms. Mostly cloudy.9 mph90%29.87 "Hg10 mi
5:51 AM79 °FPartly cloudy.6 mph94%29.85 "Hg10 mi
4:51 AM78 °FPartly cloudy.3 mph93%29.85 "Hg10 mi
3:51 AM78 °FPassing clouds.5 mph93%29.86 "Hg10 mi
2:51 AM78 °FPartly cloudy.No wind90%29.88 "Hg10 mi
1:51 AM78 °FPassing clouds.No wind90%29.88 "Hg10 mi
12:51 AM79 °FPassing clouds.6 mph90%29.88 "Hg10 mi
11:51 PM
Aug 29
79 °FPartly cloudy.7 mph90%29.87 "Hg10 mi
10:51 PM80 °FPassing clouds.6 mph85%29.86 "Hg10 mi
9:51 PM80 °FPartly cloudy.9 mph85%29.84 "Hg10 mi
8:51 PM81 °FBroken clouds.7 mph79%29.82 "Hg10 mi
7:51 PM83 °FBroken clouds.10 mph74%29.81 "Hg10 mi
6:51 PM85 °FBroken clouds.10 mph70%29.79 "Hg10 mi
5:51 PM86 °FBroken clouds.13 mph65%29.78 "Hg10 mi
4:51 PM88 °FCloudy.14 mph63%29.79 "Hg10 mi
3:51 PM88 °FCloudy.10 mph65%29.79 "Hg10 mi
1:51 PM86 °FBroken clouds.8 mph70%29.82 "Hg10 mi
12:51 PM82 °FCloudy.6 mph82%29.82 "Hg10 mi
11:51 AM78 °FCloudy.10 mph93%29.85 "Hg10 mi
10:51 AM78 °FLight rain. Broken clouds.12 mph90%29.86 "Hg10 mi
9:51 AM79 °FPartly sunny.10 mph88%29.85 "Hg10 mi
Weather by CustomWeather, © 2014

See weather overviewHow to use our weather pages